Regional Weather Roundup
Issued by NWS

Home | Current Version | Previous Version | Graphics & Text | Print | Product List | Glossary Off
Versions: 1 2 3 4 5 6 7 8 9 10 11 12 13 14 15 16 17 18 19 20 21 22 23 24 25 26 27 28 29 30 31 32 33 34 35 36 37 38 39 40 41 42 43 44 45 46 47 48 49 50

000
ASUS43 KMKX 311300
RWRWI

WISCONSIN REGIONAL WEATHER ROUNDUP
NATIONAL WEATHER SERVICE MILWAUKEE/SULLIVAN WI
800 AM CDT FRI JUL 31 2015

NOTE: "FAIR" INDICATES FEW OR NO CLOUDS BELOW 12,000 FEET WITH NO
SIGNIFICANT WEATHER AND/OR OBSTRUCTIONS TO VISIBILITY.

WIZ001-002-006>008-014>016-023>028-311400-
NORTHWEST WISCONSIN

CITY           SKY/WX    TMP DP  RH WIND       PRES   REMARKS
SUPERIOR ARPT  SUNNY     64  55  70 W9        29.97R
ASHLAND        SUNNY     67  56  67 W10G18    29.95R
HAYWARD        SUNNY     65  53  65 NW6       30.00R
SIREN          SUNNY     64  53  67 W9        30.02R
CUMBERLAND     SUNNY     63  54  72 W9        30.02R
RICE LAKE      SUNNY     63  56  76 W6        30.03R
CHETEK         SUNNY     65  55  70 W7        30.02R
LADYSMITH      SUNNY     65  56  73 W9        30.01R
EAU CLAIRE     NOT AVBL
MENOMONIE      SUNNY     67  54  62 W12       30.03S
NEW RICHMOND   SUNNY     65  54  68 W8        30.05R
OSCEOLA        SUNNY     65  54  65 W10       30.07R
$$

WIZ003>005-009-010-017-018-311400-
NORTH CENTRAL WISCONSIN

CITY           SKY/WX    TMP DP  RH WIND       PRES   REMARKS
MANITOWISH WTR SUNNY     63  57  79 NW9G20    29.95R
ARBOR VITAE    SUNNY     64  57  76 W8        29.94R
WOODRUFF       SUNNY     64  57  76 W8        29.94R
RHINELANDER    SUNNY     65  56  72 W8        29.96R
EAGLE RIVER    MOSUNNY   63  57  79 W6        29.93R
LAND O LAKES   SUNNY     65  55  72 W6        29.94R
PHILLIPS       SUNNY     63  56  77 W5        29.97R
TOMAHAWK       SUNNY     62  56  82 W9        29.97R
MEDFORD        SUNNY     62  56  81 W8        29.99S
MERRILL        NOT AVBL
$$

WIZ029-030-035-036-043>047-311400-
CENTRAL WISCONSIN

CITY           SKY/WX    TMP DP  RH WIND       PRES   REMARKS
WAUSAU         SUNNY     67  56  67 W15       29.96R
MOSINEE        SUNNY     66  57  72 W14G21    29.98S
MARSHFIELD     SUNNY     67  55  65 W13       30.00R
STEVENS POINT  SUNNY     66  56  71 W8G17     29.98S
WAUPACA        SUNNY     71  60  67 W10G16    29.96S
WAUTOMA        NOT AVBL
WISC RAPIDS    SUNNY     69  57  65 NW10      30.00S
CAMP DOUGLAS   NOT AVBL
$$

WIZ011>013-019>022-031-037>040-048>050-311400-
NORTHEAST WISCONSIN

CITY           SKY/WX    TMP DP  RH WIND       PRES   REMARKS
ANTIGO         PTSUNNY   60  57  89 W10       29.96R
SHAWANO        SUNNY     69  58  68 W7        29.93S
OCONTO         SUNNY     68  59  73 W9        29.90S
STURGEON BAY   SUNNY     70  57  64 W9        29.92S
GREEN BAY      SUNNY     70  60  70 W13       29.93S
MANITOWOC      NOT AVBL
APPLETON       MOSUNNY   66  57  72 W9        29.96S
CLINTONVILLE   SUNNY     68  55  64 W12       29.94S
OSHKOSH        SUNNY     72  59  63 W6        29.96S
$$

WIZ032>034-041-042-053>061-311400-
SOUTHWEST WISCONSIN

CITY           SKY/WX    TMP DP  RH WIND       PRES   REMARKS
LA CROSSE      SUNNY     72  58  61 W8        30.03S
SPARTA         SUNNY     66  58  76 SW5       30.03S
VIROQUA        SUNNY     65  62  88 W6        30.06R
BOSCOBEL       SUNNY     70  64  81 SW5       30.05S
PRAIRIE DU CHI SUNNY     71  61  72 W5        30.06R
PLATTEVILLE    SUNNY     68  66  93 W7        30.07R
$$

WIZ056-057-062-063-064-067-068-311400-
SOUTH CENTRAL WISCONSIN

CITY           SKY/WX    TMP DP  RH WIND       PRES   REMARKS
REEDSBURG      SUNNY     68  60  75 W5        30.02R
BARABOO/DELLS  SUNNY     69  58  67 W7        30.02S
LONE ROCK      NOT AVBL
MINERAL POINT  SUNNY     68  64  88 W7        30.06R
MADISON        SUNNY     71  61  70 W5        30.01S
MIDDLETON      SUNNY     70  61  74 W9        30.03S
WATERTOWN      SUNNY     68  64  87 SW6       30.00S
MONROE         SUNNY     68  63  83 W8        30.05R
JANESVILLE     SUNNY     70  63  78 W6        30.02R
$$

WIZ051-052-058>065-066-070>072-311400-
SOUTHEAST WISCONSIN

CITY           SKY/WX    TMP DP  RH WIND       PRES   REMARKS
MILWAUKEE      MOSUNNY   74  58  57 W10       29.99S
WAUKESHA       SUNNY     70  57  64 W10       30.01R
MILWAUKEE/TIMM SUNNY     72  57  60 W8        29.99F
RACINE         MOSUNNY   73  59  61 W8        30.01S
BURLINGTON     MOSUNNY   70  59  68 W10       30.00F
KENOSHA        PTSUNNY   70  61  73 W8        30.00S
FOND DU LAC    SUNNY     71  60  68 W9        29.97S
SHEBOYGAN      SUNNY     72  60  66 W9        29.95F
WEST BEND      SUNNY     70  55  60 CALM      29.98F
JUNEAU         SUNNY     65  60  82 SW7       30.00F
$$

LSZ147-162-311400-
LAKE SUPERIOR

STATION/POSITION TIME  TEMP    WIND        PRES    WAVE
                       AIR SEA DIR/SP/G            HT/PER
                 (UTC) (F)     (DEG/KT/KT) (MB)    (FT/S)
W MID LAKE BUOY  1150   57 52  260/ 14/ 16 1011.1R   2/ 4
DEVILS ISLAND    1200   58     280/ 18/ 20 1012.5R
PORT WING        1200   65     240/ 10/ 16 1013.9R
SAXON HARBOR     1200   65                 1012.9R
$$

LMZ867-665-643>646-311400-
LAKE MICHIGAN

STATION/POSITION TIME  TEMP    WIND        PRES    WAVE
                       AIR SEA DIR/SP/G            HT/PER
                 (UTC) (F)     (DEG/KT/KT) (MB)    (FT/S)
CHAMBERS ISLAND  1200   66     220/  6/ 11 1011.9R
S GREEN BAY BUOY 1200   64 66  250/ 12/ 14 1014.0R
N MID LAKE BUOY  1150   69 68  250/ 12/ 14 1010.4S   2/ 4
NORTHPORT PIER   1200   69     270/  6/ 11 1011.2S
SISTER BAY       1129   70     290/ 16/ 19   N/A
ALGOMA LAKESHORE 1242          270/  7/ 13   N/A
KEWAUNEE LAKESHO 1200   68     280/  6/  9 1012.4R
SHEBOYGAN LAKESH 1200   69     250/ 10/ 12 1014.2R
PORT WASHINGTON  1200   72     280/  5/  7 1015.6R
ATWATER BUOY     1200   69 62  260/ 10/ 14 1016.5R
MILWAUKEE LAKESH 1200   72     270/  9/ 11   N/A
KENOSHA   LAKESH 1200   71     260/  9/ 11 1015.6R
$$

TC  - TEMPERATURE IN CELSIUS
VSB - VISIBILITY IN STATUTE MILES
WCI - WIND CHILL INDEX
HX  - HEAT INDEX




USA.gov is the U.S. government's official web portal to all federal, state and local government web resources and services.